This demonstration page uses our WeatherBlox Daily Observations layout. Learn more.

Hourly Observations for December 4, 2016

Temp ( °F °C ) Dew Point ( °F °C ) Humidity (%) Winds ( mph kmh ) Pressure ( in mb ) Visibility ( mi km ) Precip ( " mm )
12:15 am 00:15 Cloudy with Mist and Fog 32 -0.2 31 -0.6 97 97 SW 6 9 30.15 1021 0.75 1.207005 0 0
12:35 am 00:35 Cloudy with Mist and Fog 32 0 31 -0.5 96 96 WSW 7 11 30.09 1019 1 1.60934 0 0
12:55 am 00:55 Cloudy with Mist and Fog 32 0 31 -0.3 98 98 SW 6 9 30.09 1019 0.75 1.207005 0 0
1:15 am 01:15 Cloudy with Mist and Fog 32 0 32 -0.1 99 99 SW 3 6 30.09 1019 0.75 1.207005 0 0
1:35 am 01:35 Cloudy with Mist and Fog 32 0.1 32 -0.1 99 99 W 8 13 30.09 1019 1 1.60934 0 0
1:55 am 01:55 Cloudy with Mist and Fog 32 0.1 32 0 99 99 W 10 17 30.06 1018 2.5 4.02335 0 0
2:15 am 02:15 Cloudy with Mist and Fog 32 0.2 32 0 99 99 W 12 19 30.09 1019 4 6.43736 0 0
2:35 am 02:35 Cloudy with Mist and Fog 32 0.2 32 0 99 99 W 9 15 30.09 1019 4 6.43736 0 0
2:55 am 02:55 Cloudy with Mist and Fog 32 0.1 32 0 99 99 W 8 13 30.09 1019 3 4.82802 0 0
3:15 am 03:15 Cloudy with Mist and Fog 32 0.1 32 -0.1 99 99 W 10 17 30.09 1019 4 6.43736 0 0
3:35 am 03:35 Cloudy with Mist and Fog 32 0 32 -0.1 99 99 W 7 11 30.09 1019 3 4.82802 0 0
3:55 am 03:55 Cloudy with Mist and Fog 32 -0.1 31 -0.5 97 97 W 8 13 30.09 1019 3 4.82802 0 0
4:15 am 04:15 Partly Cloudy with Mist and Fog 30 -0.9 30 -1.3 97 97 W 6 9 30.09 1019 4 6.43736 0 0
4:35 am 04:35 Mostly Cloudy 31 -0.8 30 -1.2 97 97 W 6 9 30.09 1019 7 11.26538 0 0
4:55 am 04:55 Mostly Cloudy 31 -0.7 30 -1.1 97 97 W 6 9 30.09 1019 10 16.0934 0 0
5:15 am 05:15 Partly Cloudy 29 -1.6 27 -2.9 91 91 W 7 11 30.09 1019 10 16.0934 0 0
5:35 am 05:35 Clear 28 -2 26 -3.2 92 92 W 8 13 30.09 1019 10 16.0934 0 0
5:55 am 05:55 Clear 27 -2.6 25 -3.7 92 92 W 6 9 30.09 1019 10 16.0934 0 0
6:15 am 06:15 Clear 26 -3.1 24 -4.3 92 92 WNW 5 7 30.09 1019 10 16.0934 0 0
6:35 am 06:35 Clear 26 -3.1 23 -4.8 88 88 WNW 7 11 30.09 1019 10 16.0934 0 0
6:55 am 06:55 Clear 26 -3.4 23 -5.1 88 88 WNW 7 11 30.09 1019 10 16.0934 0 0
7:15 am 07:15 Clear 27 -3 22 -5.6 82 82 WNW 6 9 30.12 1020 10 16.0934 0 0
7:35 am 07:35 Clear 27 -3 21 -6 80 80 WNW 5 7 30.09 1019 10 16.0934 0 0
7:55 am 07:55 Sunny 27 -3 21 -6.2 79 79 W 7 11 30.12 1020 10 16.0934 0 0
8:15 am 08:15 Sunny 26 -3.5 21 -6.1 82 82 W 7 11 30.15 1021 10 16.0934 0 0
8:35 am 08:35 Sunny 26 -3.3 22 -5.7 84 84 W 6 9 30.12 1020 10 16.0934 0 0
8:55 am 08:55 Sunny 28 -2.2 23 -4.9 82 82 W 6 9 30.12 1020 10 16.0934 0 0
9:15 am 09:15 Sunny 30 -1.2 24 -4.2 80 80 W 7 11 30.12 1020 10 16.0934 0 0
9:35 am 09:35 Sunny 32 -0.2 25 -3.7 78 78 W 9 15 30.09 1019 10 16.0934 0 0
9:55 am 09:55 Sunny 33 0.4 27 -3 78 78 W 9 15 30.09 1019 10 16.0934 0 0
10:15 am 10:15 Sunny 34 1 27 -2.6 77 77 W 8 13 30.12 1020 10 16.0934 0 0
10:35 am 10:35 Sunny 35 1.9 28 -2.2 75 75 WNW 7 11 30.09 1019 10 16.0934 0 0
10:55 am 10:55 Sunny 38 3.2 30 -1.3 73 73 W 7 11 30.06 1018 10 16.0934 0 0
11:15 am 11:15 Sunny 40 4.2 29 -1.5 67 67 W 7 11 30.06 1018 10 16.0934 0 0
11:35 am 11:35 Sunny 41 5 31 -0.7 67 67 W 9 15 30.06 1018 10 16.0934 0 0
11:55 am 11:55 Sunny 42 5.4 31 -0.7 65 65 WSW 7 11 30.03 1017 10 16.0934 0 0
12:15 pm 12:15 Sunny 43 6 31 -0.6 63 63 WSW 7 11 30 1016 10 16.0934 0 0
12:35 pm 12:35 Sunny 44 6.5 31 -0.4 62 62 WSW 5 7 30 1016 10 16.0934 0 0
12:55 pm 12:55 Sunny 45 7.3 31 -0.8 57 57 W 8 13 29.97 1015 10 16.0934 0 0
1:15 pm 13:15 Sunny 47 8.4 30 -1 52 52 WSW 5 7 29.97 1015 10 16.0934 0 0
1:35 pm 13:35 Sunny 49 9.3 27 -2.8 43 43 WSW 9 15 29.91 1013 10 16.0934 0 0
1:55 pm 13:55 Sunny 49 9.5 25 -3.8 39 39 WSW 8 13 29.91 1013 10 16.0934 0 0
2:15 pm 14:15 Sunny 50 9.9 22 -5.4 34 34 SW 9 15 29.91 1013 10 16.0934 0 0
2:35 pm 14:35 Sunny 51 10.3 21 -6.3 31 31 W 12 19 29.88 1012 10 16.0934 0 0
2:55 pm 14:55 Sunny 51 10.4 19 -7.3 28 28 WSW 10 17 29.88 1012 10 16.0934 0 0
3:15 pm 15:15 Sunny 51 10.3 18 -7.9 27 27 SW 8 13 29.88 1012 10 16.0934 0 0
3:35 pm 15:35 Sunny 50 10.1 17 -8.1 27 27 WSW 10 17 29.88 1012 10 16.0934 0 0
3:55 pm 15:55 Sunny 50 9.9 17 -8.1 28 28 WSW 9 15 29.88 1012 10 16.0934 0 0
4:15 pm 16:15 Sunny 49 9.5 17 -8.1 28 28 W 8 13 29.88 1012 10 16.0934 0 0
4:35 pm 16:35 Sunny 48 8.7 18 -7.8 31 31 W 7 11 29.88 1012 10 16.0934 0 0
4:55 pm 16:55 Sunny 45 7.3 18 -7.8 34 34 WSW 5 7 29.91 1013 10 16.0934 0 0
5:15 pm 17:15 Clear 43 6.1 18 -7.6 37 37 SW 3 6 29.91 1013 10 16.0934 0 0
5:35 pm 17:35 Clear 41 5 20 -6.7 43 43 SW 5 7 29.91 1013 10 16.0934 0 0
5:55 pm 17:55 Clear 40 4.3 19 -7.2 43 43 SW 7 11 29.94 1014 10 16.0934 0 0
6:15 pm 18:15 Clear 39 4.1 19 -7.5 43 43 SSW 7 11 29.94 1014 10 16.0934 0 0
6:35 pm 18:35 Clear 37 2.7 18 -7.7 47 47 SSW 6 9 29.94 1014 10 16.0934 0 0
6:55 pm 18:55 Clear 34 1.1 19 -7.2 54 54 SSW 7 11 29.97 1015 10 16.0934 0 0
7:15 pm 19:15 Clear 34 0.9 20 -6.5 58 58 SSW 7 11 29.97 1015 10 16.0934 0 0
7:35 pm 19:35 Clear 34 1.2 21 -6.2 58 58 SW 6 9 29.97 1015 10 16.0934 0 0
7:55 pm 19:55 Clear 37 2.8 20 -6.5 51 51 SSW 10 17 29.91 1013 10 16.0934 0 0
8:15 pm 20:15 Clear 36 2.4 20 -6.9 51 51 S 12 19 29.91 1013 10 16.0934 0 0
8:35 pm 20:35 Clear 36 2 20 -6.6 53 53 S 9 15 29.88 1012 10 16.0934 0 0
8:55 pm 20:55 Clear 32 0 20 -6.4 62 62 S 7 11 29.91 1013 10 16.0934 0 0
9:15 pm 21:15 Clear 33 0.4 21 -6.3 61 61 S 10 17 29.91 1013 10 16.0934 0 0
9:35 pm 21:35 Clear 33 0.6 20 -6.5 59 59 S 8 13 29.91 1013 10 16.0934 0 0
9:55 pm 21:55 Clear 35 1.6 20 -6.7 54 54 S 14 22 29.88 1012 10 16.0934 0 0
10:35 pm 22:35 Clear 37 2.6 20 -6.8 50 50 SSW 14 22 29.85 1011 10 16.0934 0 0
10:55 pm 22:55 Clear 37 2.8 20 -6.7 50 50 SSW 14 22 29.85 1011 10 16.0934 0 0
11:15 pm 23:15 Clear 37 2.5 20 -6.6 51 51 SW 13 20 29.85 1011 10 16.0934 0 0
11:35 pm 23:35 Clear 37 2.5 20 -6.4 52 52 SSW 13 20 29.85 1011 10 16.0934 0 0
11:55 pm 23:55 Clear 36 2.4 21 -6.1 54 54 SSW 15 24 29.85 1011 10 16.0934 0 0

Powered by AerisWeather